User: anonymous   Login
Location: Unspecified
(0.0000°N, 0.0000°E)
Time: 11:49:26
(UTC+00:00)
Language:

PROBA 2 - Orbit

View from above orbital plane
View from above orbital plane
View from above satellite
View from above satellite

Ground track
Ground track

The orbit data is extracted from the following two-line orbital elements,

1 36037U 09059B   15212.62788439  .00000070  00000-0  27927-4 0  9998
2 36037 098.2744 045.1043 0012055 292.1831 107.7367 14.52863978304440
Epoch (UTC): 31 July 2015 15:04:09
Eccentricity: 0.0012055
inclination: 98.2744°
perigee height: 708 km
apogee height: 725 km
right ascension of ascending node: 45.1043°
argument of perigee: 292.1831°
revolutions per day: 14.52863978
mean anomaly at epoch: 107.7367°
orbit number at epoch: 30444

The dashed part of the orbit path shows where the satellite is in the earth's shadow,  

DLR